Regional Weather Roundup
Issued by NWS Charleston, WV

Home | Current Version | Previous Version | Graphics & Text | Print | Product List | Glossary On
Versions: 1 2 3 4 5 6 7 8 9 10 11 12 13 14 15 16 17 18 19 20 21 22 23 24 25 26 27 28 29 30 31 32 33 34 35 36 37 38 39 40 41 42 43 44 45 46 47 48
000
ASUS41 KRLX 192310
RWRRLX
West Virginia Regional Weather Roundup
National Weather Service Charleston WV
600 PM EST FRI DEC 19 2014

Note: "fair" indicates few or no clouds below 12,000 feet with no
significant weather and/or obstructions to visibility.

WVZ003-200000-
Northern Panhandle of West Virginia

CITY           SKY/WX    TMP DP  RH WIND       PRES   REMARKS
WHEELING       CLOUDY    29  24  82 W5        30.23S
$$

WVZ009-200000-
Northwest West Virginia

CITY           SKY/WX    TMP DP  RH WIND       PRES   REMARKS
PARKERSBURG    CLOUDY    30  23  75 SW5       30.32R
$$

WVZ006-200000-
Western West Virginia

CITY           SKY/WX    TMP DP  RH WIND       PRES   REMARKS
HUNTINGTON     CLOUDY    31  22  69 NE3       30.27R
$$

WVZ015-200000-
West Central West Virginia

CITY           SKY/WX    TMP DP  RH WIND       PRES   REMARKS
CHARLESTON     CLOUDY    31  21  66 N3        30.27R
$$

WVZ022-031-200000-
North Central West Virginia

CITY           SKY/WX    TMP DP  RH WIND       PRES   REMARKS
CLARKSBURG     CLOUDY    30  22  72 W5        30.25R
MORGANTOWN     CLOUDY    30  19  63 W3        30.23S
$$

WVZ025-035-042-045-200000-
Southern West Virginia

CITY           SKY/WX    TMP DP  RH WIND       PRES   REMARKS
BECKLEY        PTCLDY    26  20  77 N6        30.16R
LOGAN          CLOUDY    28  23  80 CALM      30.22R
BLUEFIELD      CLOUDY    33  23  66 NW5       30.14R
LEWISBURG      PTCLDY    30  22  72 W3        30.15R
$$

WVZ047-200000-
Northern Mountains of West Virginia

CITY           SKY/WX    TMP DP  RH WIND       PRES   REMARKS
ELKINS         CLOUDY    26  22  84 CALM      30.20R
$$

WVZ052-200000-
Eastern Panhandle of West Virginia

CITY           SKY/WX    TMP DP  RH WIND       PRES   REMARKS
MARTINSBURG    CLEAR     34  19  54 NW13      30.19S
PETERSBURG     CLOUDY    32  23  69 CALM      30.22R
$$


USA.gov is the U.S. government's official web portal to all federal, state and local government web resources and services.